{"data":{"norad_id":61223,"epoch":"2026-05-25T04:44:16.904832Z","epoch_age_seconds":58221,"freshness":"FRESH","line1":"1 61223U 24172D   26145.19741788  .00001704  00000+0  27739-3 0  9995","line2":"2 61223  98.0413 235.4348 0002914 139.1507 220.9919 14.72313101 89396","mean_motion":14.72313101,"eccentricity":0.0002914,"inclination_deg":98.0413,"raan_deg":235.4348,"arg_perigee_deg":139.1507,"mean_anomaly_deg":220.9919,"bstar":0.00027739,"rev_number":8939,"period_min":97.805283334227,"perigee_km":651.64436984496,"apogee_km":655.74252062844,"semimajor_km":7031.8304452367,"source":"CELESTRAK","updated_at":"2026-05-25T13:38:02.342786Z"}}